Location: Rounton
(54.4000°N, 1.3500°W)
Time: 16:48:35
(UTC+00:00)

Transit 2A Rocket - Pass Details

Date: 02 December 2021
Orbit: 584 x 917 km, 66.7° (Epoch: 23 January)

Event Time Altitude Azimuth Distance (km) Brightness Sun altitude
Rises 16:23:55 0° 317° (NW) 3,567 8.6 -5.5°
Reaches altitude 10° 16:26:29 10° 316° (NW) 2,621 8.0 -5.9°
Maximum altitude 16:32:35 68° 235° (SW) 968 5.8 -6.6°
Drops below altitude 10° 16:38:25 10° 153° (SSE) 2,502 7.7 -7.4°
Sets 16:40:49 0° 151° (SSE) 3,395 8.3 -7.7°
